Weather in Oberstdorf

Germany     47°24′37″N   10°16′29″E
temp.,
°C
wind,
m/s
gust,
m/s
humid.,
%
clouds,
%
prec.,
mm/h
press.,
hPa
HPBL,
m
6 may, thu
thu623:00+1sw249998 2.1 1017189
02:000s229978 2.3 1017105
05:00−1s339591 0.0 101649
08:00+2s2288100 0.0 1014128
11:00+6s1266100 0.0 1011680
14:00+8se1259100 0.1 1008927
17:00+5ssw1391100 1.5 1008510
20:00+4s2398100 6.5 1007148
7 may, fri
fri723:00+4ssw41396100 7.0 10101096
02:00+3ssw3698100 7.5 1011239
05:00+3wsw41393100 0.1 10111173
08:00+4wsw31396100 0.5 10131365
11:00+1nw12100100 8.8 101662
14:00+2w23100100 14.1 1018181
17:00+2wsw2310097 2.4 1020215
20:00+1ssw119715 2.7 102118
8 may, sat
sat823:00−2sse329540 0.0 102437
02:00−4sse329419 0.0 102532
05:00−3sse329327 0.0 102436
08:00+2sse239189 0.0 102278
11:00+8s12788 0.0 1018596
14:00+10s2270100 0.0 1017818
17:00+11s237160 0.0 1016559
20:00+6sse338944 0.0 101844
9 may, sun
sun923:00+3sse438220 0.0 101941
02:00+3sse438132 0.0 101840
05:00+4sse43835 0.0 101639
08:00+9sse34805 0.0 101375
11:00+17s115514 0.0 1010575
14:00+19s225214 0.0 10101106
17:00+18ssw335614 0.0 1008597
20:00+11s34876 0.0 100972
10 may, mon
mon1023:00+8sse44819 0.0 101061
02:00+6sse458364 0.0 101083
05:00+6sse44843 0.0 101071
08:00+11sse35724 0.0 1010129
11:00+19ese11471 0.0 1008929
14:00+20nnw034597 0.0 10081500
17:00+18n3264100 0.1 1008994
20:00+13w1191100 0.3 100715